星链-35095 (STARLINK-35095)

导读 | 豆包AI

STARLINK-35095是美国SpaceX公司星链(Starlink)卫星互联网星座的成员,于2025年8月31日发射,运行在近地轨道。作为星链大规模组网的组成部分,它旨在为全球尤其是基础设施匮乏的偏远地区提供高速低延迟宽带互联网服务,助力缩小数字鸿沟,推动全球互联互通,同时星链项目也持续引发关于太空资源利用与天文观测影响的讨论。

基本信息
目录编号:
65425
目录名称:
STARLINK-35095
国际标识:
2025-192X
轨道中心:
EARTH
卫星名称:
星链-35095
卫星全名:
星链-35095 (STARLINK-35095)
卫星状态:
在轨 (已飞行195 天)
发射日期:
2025-08-31 UTC
国别 :
美国 (US)
星等 :
--
轨道信息
数据来源 国际轨道数据
星历时间: 2026-03-13T17:05:39+0800
1天前
查看轨道信息
半长轴: 6853.303km
偏心率: 0.0001114
轨道倾角: 53.160°
近地点辐角 92.382°
升交点赤经 215.597°
平近点角 267.731°
近地点: 474.402km
远地点: 475.93km
周期: 94.104分钟
每日圈数: 15.302167
详细信息
固有亮度:
5
最大亮度:
2.5
卫星平台:
Starlink V1.0
覆盖范围:
全球
运营商:
太空探索技术公司
运营商所在国:
美国
制造商(研发单位):
太空探索技术公司
制造商所在国:
美国
使用方式:
暂无
卫星简介
Starlink 计划是 SpaceX 推出的全球卫星互联网项目,通过发射低轨道卫星,为全球尤其是偏远地区提供高速、低延迟的互联网服务。自 2019 年起,Starlink 已部署数千颗卫星,旨在缩小全球数字鸿沟,推动互联网普及。该项目还为军事、航空等行业提供通信支持,带来广泛经济效益。
2D轨道图
3D轨道图
轨道高度分析图
轨道倾角分析图
轨道综合分析图
查看轨道综合分析图